Weather History for Keahole Point, HI

Change the Weather History Date:

Sunday, October 14, 2012

  Actual Average Record
Temperature  
Mean Temperature 80 °F -  
Max Temperature 86 °F 84 °F 91 °F (1986)
Min Temperature 73 °F 73 °F 69 °F (1991)
Cooling Degree Days 14    
Growing Degree Days 30 (Base 50)    
Moisture  
Dew Point 64 °F    
Average Humidity 56    
Maximum Humidity 67    
Minimum Humidity 49    
Precipitation  
Precipitation 0.00 in - - ()
Sea Level Pressure  
Sea Level Pressure 30.05 in    
Wind  
Wind Speed 7 mph (SSW)    
Max Wind Speed 12 mph    
Max Gust Speed -    
Visibility 10 miles    
Events      
Averages and records for this station are not official NWS values.
T = Trace of Precipitation, MM = Missing Value Source: NWS Daily Summary

Daily Weather History Graph

Daily Weather History Graph

Search for Another Location

Airport:

Trip Planner

Search our weather history database for the weather conditions in past years. The results will help you decide how hot, cold, wet, or windy it might be!

Date:

Astronomy

Oct. 14, 2012 Rise Set
Actual Time 6:18 AM HST 6:01 PM HST
Civil Twilight 5:56 AM HST 6:23 PM HST
Nautical Twilight 5:30 AM HST 6:48 PM HST
Astronomical Twilight 5:05 AM HST 7:14 PM HST
Moon 5:31 AM HST (10/14) 5:31 PM HST (10/14)
Length of Visible Light 12h 26m
Length of Day
11h 42m
Waning Crescent, 1% of the Moon is Illuminated
Oct 14
Waning Crescent
Oct 15
New
Oct 21
First Quarter
Oct 29
Full
Nov 6
Last Quarter

Hourly Weather History & Observations

Time (HST) Temp. Heat Index Dew Point Humidity Pressure Visibility Wind Dir Wind Speed Gust Speed Precip Events Conditions
12:53 AM 77.0 °F - 62.1 °F 60% 30.08 in 10.0 mi East 6.9 mph - N/A   Clear
1:53 AM 79.0 °F - 60.1 °F 52% 30.06 in 10.0 mi ENE 9.2 mph - N/A   Clear
2:53 AM 75.9 °F - 60.1 °F 58% 30.05 in 10.0 mi NNE 11.5 mph - N/A   Clear
3:53 AM 77.0 °F - 59.0 °F 54% 30.04 in 10.0 mi East 6.9 mph - N/A   Clear
4:53 AM 77.0 °F - 57.9 °F 52% 30.05 in 10.0 mi NNE 9.2 mph - N/A   Clear
5:53 AM 75.9 °F - 59.0 °F 56% 30.05 in 10.0 mi Calm Calm - N/A   Clear
6:53 AM 73.9 °F - 60.1 °F 62% 30.07 in 10.0 mi SSE 4.6 mph - N/A   Clear
7:53 AM 79.0 °F - 62.1 °F 56% 30.08 in 10.0 mi South 5.8 mph - N/A   Clear
8:53 AM 82.0 °F 82.7 °F 61.0 °F 49% 30.09 in 10.0 mi WSW 6.9 mph - N/A   Clear
9:53 AM 82.9 °F 83.7 °F 62.1 °F 49% 30.09 in 10.0 mi WNW 4.6 mph - N/A   Clear
10:53 AM 84.0 °F 85.4 °F 64.0 °F 51% 30.08 in 10.0 mi WSW 8.1 mph - N/A   Clear
11:53 AM 84.0 °F 85.8 °F 64.9 °F 53% 30.06 in 10.0 mi WSW 9.2 mph - N/A   Clear
12:53 PM 84.9 °F 86.6 °F 64.9 °F 51% 30.04 in 10.0 mi SW 10.4 mph - N/A   Clear
1:53 PM 86.0 °F 88.2 °F 66.0 °F 51% 30.02 in 10.0 mi SSW 8.1 mph - N/A   Clear
2:53 PM 84.0 °F 86.3 °F 66.0 °F 55% 30.00 in 10.0 mi WSW 6.9 mph - N/A   Clear
3:53 PM 84.0 °F 86.3 °F 66.0 °F 55% 30.01 in 10.0 mi WSW 8.1 mph - N/A   Clear
4:53 PM 82.9 °F 84.6 °F 64.9 °F 54% 30.01 in 10.0 mi WSW 6.9 mph - N/A   Partly Cloudy
5:53 PM 81.0 °F 83.0 °F 66.0 °F 60% 30.01 in 10.0 mi WSW 4.6 mph - N/A   Clear
6:53 PM 81.0 °F 83.0 °F 66.0 °F 60% 30.03 in 10.0 mi SW 4.6 mph - N/A   Overcast
7:53 PM 81.0 °F 83.3 °F 66.9 °F 62% 30.04 in 10.0 mi SSW 4.6 mph - N/A   Mostly Cloudy
8:53 PM 81.0 °F 83.3 °F 66.9 °F 62% 30.06 in 10.0 mi SW 3.5 mph - N/A   Overcast
9:53 PM 80.1 °F 82.7 °F 68.0 °F 67% 30.06 in 10.0 mi South 4.6 mph - N/A   Mostly Cloudy
10:53 PM 80.1 °F 82.1 °F 66.0 °F 62% 30.06 in 10.0 mi SE 6.9 mph - N/A   Overcast
11:53 PM 79.0 °F - 66.0 °F 64% 30.05 in 10.0 mi SE 6.9 mph - N/A   Overcast